Temp
51 49 49 50 49 48 47 47 48 47 46 45 45 44 43 41 40 40 39 39 38 38
50 50 50 50 49 48 49 51 45 45 45 45 45 43 42 40 41 40 39 38 38 38
52 51 50 50 49 49 49 50 47 47 45 44 44 43 42 40 41 40 38 40 39 39
51 51 51 50 50 49 49 49 48 47 45 45 45 44 42 41 40 40 39 39 39 39
51 51 52 50 50 48 49 47 47 46 45 45 44 43 41 41 41 39 38 38 38 38
49 50 50 49 47 46 47 45 44 45 45 45 43 43 43 42 40 40 40 39 39 38
50 50 48 47 46 45 44 43 44 45 45 45 44 44 44 41 39 38 38 38 36 36
50 48 46 45 45 45 45 46 45 44 43 43 44 45 42 40 37 36 35 35 36 34
48 47 47 46 45 44 45 47 46 44 42 42 44 41 40 38 35 36 34 33 33 33
48 47 46 45 44 45 45 44 44 43 42 41 40 38 39 38 34 34 32 32 31 33
47 44 45 43 43 43 43 42 40 40 42 40 40 38 38 36 33 32 31 31 30 30
43 43 42 42 41 41 41 41 40 41 40 39 36 37 37 34 30 30 31 32 32 30
44 42 40 40 40 41 41 40 39 39 38 38 34 36 36 34 27 29 28 29 30 34
42 41 41 40 41 40 37 35 33 33 33 33 32 31 36 36 30 29 28 28 27 27
MSLP
1021.62 1022.17 1022.81 1023.43 1024.01 1024.61 1024.96 1025.31 1025.26 1025.00 1025.66 1025.59 1025.47 1025.44 1025.49 1025.58 1025.61 1025.59 1025.72 1025.86 1025.85 1025.97
1022.10 1022.57 1023.08 1023.61 1023.97 1024.28 1024.78 1024.80 1025.11 1025.18 1025.34 1025.15 1025.27 1025.33 1025.45 1025.61 1025.61 1025.62 1025.70 1025.67 1025.66 1025.57
1021.97 1022.50 1022.99 1023.40 1023.81 1024.03 1024.15 1024.50 1024.62 1024.83 1024.92 1025.11 1025.17 1025.15 1025.17 1025.37 1025.39 1025.49 1025.41 1025.34 1025.38 1025.55
1021.43 1021.96 1022.39 1022.85 1023.30 1023.58 1023.76 1023.93 1024.34 1024.33 1024.59 1024.90 1024.88 1024.85 1025.09 1025.36 1025.34 1025.44 1025.31 1025.08 1025.06 1025.37
1020.73 1021.33 1021.89 1022.30 1022.71 1023.01 1023.26 1023.40 1023.97 1024.05 1024.33 1024.51 1024.73 1024.77 1024.91 1024.93 1025.04 1025.09 1025.17 1025.10 1025.09 1025.18
1020.35 1020.81 1021.31 1021.81 1022.24 1022.66 1023.01 1023.45 1023.74 1023.82 1023.95 1023.99 1024.05 1024.31 1024.55 1024.60 1024.77 1024.94 1025.17 1025.20 1025.18 1025.15
1019.91 1020.33 1020.70 1021.18 1021.89 1022.35 1022.73 1023.13 1023.44 1023.58 1023.56 1023.54 1023.63 1023.83 1024.06 1024.27 1024.60 1024.91 1024.98 1025.03 1025.01 1025.15
1019.33 1019.79 1020.56 1021.29 1021.86 1022.26 1022.63 1022.77 1022.91 1022.97 1023.00 1023.10 1023.18 1023.32 1023.64 1023.97 1024.22 1024.52 1024.77 1024.90 1024.89 1024.89
1019.29 1019.99 1020.66 1021.22 1021.72 1022.27 1022.39 1022.66 1022.86 1022.75 1022.69 1022.69 1022.78 1022.82 1023.12 1023.55 1023.97 1024.27 1024.47 1024.62 1024.69 1024.76
1019.26 1020.07 1020.75 1021.24 1021.53 1022.07 1022.57 1022.86 1022.81 1022.64 1022.42 1022.48 1022.48 1022.61 1022.84 1023.18 1023.61 1023.89 1024.17 1024.32 1024.48 1024.59
1019.64 1020.22 1020.59 1021.01 1021.38 1022.18 1022.76 1022.87 1022.59 1022.34 1022.23 1022.19 1022.17 1022.43 1022.63 1022.99 1023.41 1023.70 1023.90 1023.97 1024.14 1024.21
1020.93 1021.29 1021.93 1021.95 1021.99 1022.27 1022.33 1022.41 1022.36 1022.17 1022.00 1021.91 1021.87 1022.06 1022.47 1022.88 1023.21 1023.53 1023.68 1023.73 1023.79 1023.78
1021.48 1021.78 1022.01 1022.05 1022.26 1022.25 1021.86 1022.17 1022.20 1022.02 1021.80 1021.63 1021.66 1021.89 1022.08 1022.44 1022.80 1023.21 1023.40 1023.51 1023.48 1023.31
1021.73 1021.89 1022.03 1022.23 1022.26 1022.08 1022.00 1022.13 1022.15 1021.96 1021.68 1021.62 1021.59 1021.47 1021.53 1021.78 1022.15 1022.45 1022.82 1023.02 1023.05 1023.02
Wind_Speed
7 5 4 5 5 4 4 4 3 6 2 4 4 0 1 0 2 2 2 4 4 2
6 7 6 6 6 4 4 4 4 4 2 3 2 2 2 2 3 1 2 4 5 3
7 7 7 6 7 6 5 4 5 3 2 2 4 4 2 1 3 3 3 3 3 3
9 8 8 7 7 7 6 6 5 5 3 2 2 1 2 1 4 4 5 2 4 3
9 9 8 8 8 7 7 6 6 5 3 2 2 3 4 3 4 3 3 3 3 3
9 9 8 8 8 7 6 6 5 5 4 4 6 6 4 5 5 4 4 3 3 3
9 10 9 7 7 7 6 6 6 6 6 6 5 6 6 5 6 5 3 2 2 2
10 7 7 7 6 6 6 6 6 6 6 6 5 5 7 6 6 6 4 2 2 3
6 8 9 7 6 4 3 1 5 6 6 7 3 9 11 7 5 5 4 3 2 2
11 10 7 6 7 6 5 4 6 6 5 6 6 9 11 11 5 5 5 4 3 3
10 8 8 7 6 4 3 5 6 6 6 5 4 11 11 11 6 4 4 5 5 5
8 10 6 5 4 3 4 3 4 4 6 6 5 12 12 9 5 5 5 4 4 4
7 7 5 2 5 5 3 3 4 5 6 5 6 12 13 10 4 5 3 4 5 5
4 2 2 5 4 3 2 3 5 5 6 6 7 8 17 16 6 6 4 5 4 4
Wind_Direction
109 113 113 125 121 114 122 132 143 104 68 57 49 277 215 132 185 148 169 228 225 225
123 123 128 123 117 123 132 122 101 89 84 54 353 352 314 226 266 285 260 264 252 212
141 139 137 131 136 140 136 136 124 145 104 352 335 356 5 250 290 285 291 273 241 195
153 157 152 149 156 165 156 157 185 164 148 298 334 111 115 240 265 260 277 273 190 220
155 162 165 166 172 169 176 176 185 165 184 237 253 233 232 242 279 249 177 157 146 172
172 171 174 176 178 178 175 182 174 185 211 228 229 227 221 162 136 147 162 195 216 247
178 179 183 175 165 175 178 166 189 218 231 235 233 228 198 167 161 176 169 169 162 190
187 176 132 132 139 141 163 185 211 236 246 247 229 214 187 183 181 172 169 160 143 192
142 129 133 135 127 144 109 331 263 259 249 252 233 209 185 167 175 175 176 188 210 256
132 128 116 111 71 43 14 307 298 298 283 262 242 192 180 174 175 179 188 191 202 244
119 117 101 88 83 20 307 285 288 291 280 266 238 190 184 173 172 180 198 196 209 217
70 77 59 50 27 280 247 287 284 278 289 250 220 187 185 170 176 190 214 218 224 221
79 68 57 11 260 253 244 266 289 302 293 255 201 197 192 186 169 194 206 230 219 229
87 136 209 242 252 249 290 321 307 302 285 251 223 216 203 199 186 199 195 211 211 212